Location: Newark
(47.5833°N, 8.1500°E)
Time: 07:54:27
(UTC+00:00)

Vanguard 1 - Pass Details

Date: 02 November 2020
Orbit: 650 x 3833 km, 34.2° (Epoch: 29 November)

Event Time Altitude Azimuth Distance (km) Brightness Sun altitude
Rises 15:45:30 0° 275° (W) 7,936 15.9 2.6°
Reaches altitude 10° 15:51:23 10° 270° (W) 6,941 15.8 1.7°
Maximum altitude 16:11:33 41° 210° (SSW) 4,180 13.8 -1.4°
Drops below altitude 10° 16:25:48 10° 147° (SSE) 4,992 13.5 -3.7°
Sets 16:29:14 0° 140° (SE) 5,618 13.7 -4.2°
